TimeMST,TemperatureF,Dew PointF,Humidity,Sea Level PressureIn,VisibilityMPH,Wind Direction,Wind SpeedMPH,Gust SpeedMPH,PrecipitationIn,Events,Conditions,WindDirDegrees,DateUTC
12:53 AM,33.1,12.9,43,29.89,10.0,North,12.7,-,N/A,,Overcast,10,2012-12-09 07:53:00
1:53 AM,33.1,10.0,38,29.92,10.0,North,12.7,18.4,N/A,,Overcast,360,2012-12-09 08:53:00
2:53 AM,32.0,14.0,48,29.95,10.0,North,16.1,-,N/A,,Overcast,10,2012-12-09 09:53:00
3:53 AM,30.9,15.1,52,29.96,10.0,North,6.9,-,N/A,,Overcast,360,2012-12-09 10:53:00
4:53 AM,28.9,14.0,54,30.01,10.0,North,11.5,-,N/A,,Overcast,10,2012-12-09 11:53:00
5:53 AM,28.0,10.0,47,30.05,10.0,North,19.6,24.2,N/A,,Overcast,10,2012-12-09 12:53:00
6:53 AM,26.1,12.0,55,30.11,10.0,North,20.7,26.5,N/A,,Overcast,360,2012-12-09 13:53:00
7:53 AM,25.0,12.9,60,30.14,10.0,NNW,9.2,-,N/A,,Overcast,340,2012-12-09 14:53:00
8:53 AM,27.0,9.0,47,30.16,10.0,NNW,13.8,-,N/A,,Overcast,340,2012-12-09 15:53:00
9:53 AM,28.0,6.1,39,30.17,10.0,NNW,15.0,25.3,N/A,,Overcast,340,2012-12-09 16:53:00
10:53 AM,28.9,6.1,38,30.19,10.0,NNW,16.1,-,N/A,,Overcast,340,2012-12-09 17:53:00
11:53 AM,26.1,5.0,41,30.19,10.0,North,15.0,-,N/A,,Overcast,350,2012-12-09 18:53:00
12:53 PM,27.0,3.9,37,30.17,10.0,North,17.3,-,N/A,,Overcast,350,2012-12-09 19:53:00
1:53 PM,27.0,3.9,37,30.17,10.0,North,16.1,25.3,N/A,,Overcast,10,2012-12-09 20:53:00
2:53 PM,27.0,3.0,36,30.19,10.0,North,16.1,25.3,N/A,,Overcast,360,2012-12-09 21:53:00
3:53 PM,26.1,3.0,37,30.21,10.0,North,16.1,-,N/A,,Overcast,360,2012-12-09 22:53:00
4:53 PM,23.0,1.0,39,30.26,10.0,North,10.4,-,N/A,,Scattered Clouds,10,2012-12-09 23:53:00
5:53 PM,18.0,-0.0,45,30.30,10.0,NNW,4.6,-,N/A,,Clear,340,2012-12-10 00:53:00
6:53 PM,19.0,1.0,46,30.32,10.0,NW,6.9,-,N/A,,Clear,320,2012-12-10 01:53:00
7:53 PM,12.0,-0.9,56,30.35,10.0,West,5.8,-,N/A,,Clear,280,2012-12-10 02:53:00
8:53 PM,10.0,-2.0,58,30.34,10.0,WNW,4.6,-,N/A,,Clear,290,2012-12-10 03:53:00
9:53 PM,7.0,-2.9,64,30.34,10.0,West,4.6,-,N/A,,Clear,280,2012-12-10 04:53:00
10:53 PM,8.1,-2.9,61,30.31,10.0,WSW,3.5,-,N/A,,Clear,240,2012-12-10 05:53:00
11:53 PM,7.0,-0.9,70,30.30,10.0,SSW,4.6,-,N/A,,Clear,200,2012-12-10 06:53:00